Terminal Aerodrome Forecast
Issued by NWS

Home | Current Version | Previous Version | Text Only | Print | Product List | Glossary On
Versions: 1 2 3 4 5 6 7 8 9 10 11 12 13 14 15 16 17 18 19 20 21
240
FTUS44 KLIX 251238 AAA
TAFGPT
TAF AMD
KGPT 251238Z 2513/2612 02005KT P6SM VCTS SCT006 SCT020CB BKN029
      TEMPO 2513/2514 BKN006 BKN020CB
     FM251430 09006KT 5SM TSRA BKN020CB OVC090
     FM251700 11007KT P6SM VCTS BKN030CB BKN080
     FM260000 14007KT P6SM SCT020 BKN100
     FM260800 VRB03KT P6SM SCT020 BKN150=

USA.gov is the U.S. government's official web portal to all federal, state and local government web resources and services.